Weather History for Schleswig Jagel, Germany

Change the Weather History Date:

Tuesday, May 8, 2012

  Actual Average Record
Temperature  
Mean Temperature 48 °F -  
Max Temperature 64 °F - - ()
Min Temperature 33 °F - - ()
Degree Days  
Heating Degree Days 16    
Moisture  
Dew Point 41 °F    
Average Humidity 79    
Maximum Humidity 100    
Minimum Humidity 45    
Precipitation  
Precipitation 0.00 in - - ()
Sea Level Pressure  
Sea Level Pressure 29.95 in    
Wind  
Wind Speed 6 mph ()    
Max Wind Speed 14 mph    
Max Gust Speed -    
Visibility 4.1 miles    
Events Fog , Rain    
T = Trace of Precipitation, MM = Missing Value Source: Averaged Metar Reports

Daily Weather History Graph

Daily Weather History Graph

Search for Another Location

Airport:

Trip Planner

Search our weather history database for the weather conditions in past years. The results will help you decide how hot, cold, wet, or windy it might be!

Date:

Astronomy

May. 08, 2012 Rise Set
Actual Time 5:29 AM CEST 9:08 PM CEST
Civil Twilight 4:44 AM CEST 9:53 PM CEST
Nautical Twilight 3:43 AM CEST 10:55 PM CEST
Astronomical Twilight 1:54 AM CEST 12:56 AM CEST
Moon No Moon Rise 7:03 AM CEST (5/8)
Length of Visible Light 17h 08m
Length of Day
15h 39m
Waning Gibbous, 92% of the Moon is Illuminated
May 8
Waning Gibbous
May 12
Last Quarter
May 21
New
May 28
First Quarter
Jun 4
Full

Hourly Weather History & Observations

Time (CEST) Temp. Windchill Dew Point Humidity Pressure Visibility Wind Dir Wind Speed Gust Speed Precip Events Conditions
12:20 AM 39.2 °F 37.0 °F 37.4 °F 93% 30.09 in 6.2 mi SE 3.5 mph - N/A   Unknown
1:20 AM 37.4 °F 33.8 °F 35.6 °F 93% 30.09 in 6.2 mi SE 4.6 mph - N/A   Unknown
2:20 AM 33.8 °F 30.8 °F 32.0 °F 93% 30.06 in 1.9 mi East 3.5 mph - N/A   Scattered Clouds
3:20 AM 35.6 °F 32.8 °F 35.6 °F 100% 30.06 in 0.1 mi ESE 3.5 mph - N/A Fog Fog
4:00 AM 37.4 °F 33.8 °F 37.4 °F 100% 30.06 in 0.3 mi SE 4.6 mph - N/A Fog Fog
4:20 AM 37.4 °F 33.8 °F 37.4 °F 100% 30.06 in 0.3 mi SE 4.6 mph - N/A Fog Fog
5:00 AM 37.4 °F 33.8 °F 37.4 °F 100% 30.04 in 0.1 mi ESE 4.6 mph - N/A Fog Fog
5:20 AM 37.4 °F 33.8 °F 37.4 °F 100% 30.04 in 0.1 mi ESE 4.6 mph - N/A Fog Fog
6:20 AM 37.4 °F 32.1 °F 37.4 °F 100% 30.01 in 0.1 mi ESE 6.9 mph - N/A Fog Fog
7:10 AM 39.2 °F 35.0 °F 39.2 °F 100% 30.01 in 0.4 mi ESE 5.8 mph - N/A Fog Fog
7:20 AM 39.2 °F 35.9 °F 39.2 °F 100% 30.01 in 1.2 mi ESE 4.6 mph - N/A   Mostly Cloudy
7:37 AM 41.0 °F 38.0 °F 41.0 °F 100% 30.01 in 2.5 mi ESE 4.6 mph - N/A   Mostly Cloudy
7:48 AM 41.0 °F 38.0 °F 41.0 °F 100% 30.01 in 3.1 mi ESE 4.6 mph - N/A   Mostly Cloudy
8:20 AM 42.8 °F 38.6 °F 42.8 °F 100% 30.01 in 5.0 mi SE 6.9 mph - N/A   Mostly Cloudy
9:20 AM 48.2 °F - 44.6 °F 87% 29.98 in 6.2 mi SE 6.9 mph - N/A   Mostly Cloudy
10:20 AM 53.6 °F - 42.8 °F 67% 29.95 in 6.2 mi SE 11.5 mph - N/A   Mostly Cloudy
11:20 AM 55.4 °F - 44.6 °F 67% 29.95 in 6.2 mi SSE 13.8 mph - N/A   Mostly Cloudy
12:20 PM 57.2 °F - 44.6 °F 63% 29.92 in 6.2 mi SSE 12.7 mph - N/A   Mostly Cloudy
1:20 PM 60.8 °F - 42.8 °F 52% 29.89 in 6.2 mi South 11.5 mph - N/A   Mostly Cloudy
2:20 PM 60.8 °F - 42.8 °F 52% 29.89 in 6.2 mi South 12.7 mph - N/A   Mostly Cloudy
3:20 PM 62.6 °F - 42.8 °F 48% 29.86 in 6.2 mi South 13.8 mph - N/A   Mostly Cloudy
4:17 PM 64.4 °F - 42.8 °F 45% 29.86 in 6.2 mi South 11.5 mph - N/A   Mostly Cloudy
5:20 PM 62.6 °F - 42.8 °F 48% 29.83 in 6.2 mi South 11.5 mph - N/A   Mostly Cloudy
6:20 PM 64.4 °F - 42.8 °F 45% 29.83 in 6.2 mi South 12.7 mph - N/A   Mostly Cloudy
7:20 PM 62.6 °F - 44.6 °F 52% 29.83 in 6.2 mi South 6.9 mph - N/A   Mostly Cloudy
8:20 PM 60.8 °F - 44.6 °F 55% 29.80 in 6.2 mi SSE 6.9 mph - N/A   Mostly Cloudy
9:20 PM 59.0 °F - 48.2 °F 67% 29.83 in 5.6 mi SSW 1.2 mph - N/A Rain Light Rain
10:20 PM 57.2 °F - 50.0 °F 77% 29.83 in 6.2 mi Variable 1.2 mph - N/A Rain Light Rain
11:20 PM 53.6 °F - 50.0 °F 88% 29.80 in 6.2 mi ENE 3.5 mph - N/A   Mostly Cloudy